Starlink 32118

operational
NORAD ID: 60280 Int'l Des: 2024-132 Owner: SPXS Country: US Constellation: starlink
LEOCIRCULAR

About Starlink 32118

Description loading...

Live Position

Loading 3D Globe...

Upcoming Passes

Altitude History

Altitude vs Time

uPlot chart will show altitude changes over time

Two-Line Element Set

1 60280U 24132C 25306.20203140 .00000769 00000-0 38094-4 0 9996
2 60280 53.1598 284.4429 0001283 100.4051 259.7094 15.30193062 72046
Epoch: Nov 2, 2025 • Age: 28 hours

Current Status

Altitude 481.1 km
Velocity 7.62 km/s
Sub-Earth Point -19.19°S, 86.7°E
Launch Date Jul 28, 2024
Age 1.2 years
Type internet

Technical Details

Classification Payload
Mass 730.00 kg
Dry Mass 700.00 kg
Total Mass 730.00 kg
Length 0.30 m
Diameter 4.10 m
Span 29.00 m
Shape Box + pan
Manufacturer SPXS
Bus Type Starlink V2M
Phase Status In Orbit
Owner/State SPXS/US

Large Constellations

Loading constellations...